This demonstration page uses our WeatherBlox Daily Observations layout. Learn more.

Left ArrowRight Arrow

39.51506, -84.39828

Hourly Observations for July 18, 2015

Temp ( °F °C ) Dew Point ( °F °C ) Humidity (%) Winds ( mph kmh ) Pressure ( in mb ) Visibility ( mi km ) Precip ( " mm )
12:15 am 00:15 Clear 74 23.6 70 21 85 85 NE 3 6 29.88 1012 10 16 N/A
12:35 am 00:35 Clear 74 23.6 70 21.2 86 86 N N/A 29.88 1012 10 16 N/A
12:55 am 00:55 Clear 73 22.9 69 20.7 87 87 N 5 7 29.91 1013 10 16 N/A
1:15 am 01:15 Clear 72 22.3 68 20.2 88 88 NNE 5 7 29.91 1013 10 16 N/A
1:35 am 01:35 Clear 72 22.3 68 20.2 88 88 N 5 7 29.94 1014 10 16 N/A
1:55 am 01:55 Clear 72 22.3 68 20.2 88 88 N N/A 29.91 1013 10 16 N/A
2:15 am 02:15 Clear 72 22 67 19.7 87 87 WSW 3 6 29.94 1014 10 16 N/A
2:35 am 02:35 Clear 70 21.2 67 19.2 88 88 WSW 3 6 29.94 1014 10 16 N/A
2:55 am 02:55 Clear 69 20.8 66 18.7 88 88 N N/A 29.94 1014 10 16 N/A
3:15 am 03:15 Clear 69 20.8 65 18.6 87 87 N N/A 29.91 1013 10 16 N/A
3:35 am 03:35 Clear 71 21.6 67 19.3 87 87 N N/A 29.91 1013 10 16 N/A
3:55 am 03:55 Clear 69 20.8 65 18.6 87 87 N N/A 29.94 1014 7 11 N/A
4:15 am 04:15 Partly Cloudy 69 20.8 66 19 90 90 N N/A 29.94 1014 7 11 N/A
4:35 am 04:35 Partly Cloudy 69 20.8 66 19 90 90 WSW 3 6 29.94 1014 7 11 N/A
4:55 am 04:55 Mostly Cloudy 69 20.8 67 19.2 91 91 SW 3 6 29.94 1014 7 11 N/A
5:15 am 05:15 Partly Cloudy 69 20.8 66 19.1 90 90 N N/A 29.94 1014 7 11 N/A
5:35 am 05:35 Mostly Cloudy with Light Rain 69 20.8 67 19.3 91 91 N N/A 29.94 1014 7 11 N/A
5:55 am 05:55 Cloudy 71 21.6 68 19.9 90 90 N N/A 29.94 1014 7 11 N/A
6:15 am 06:15 Mostly Cloudy 71 21.6 67 19.7 89 89 WSW 3 6 29.94 1014 7 11 N/A
6:35 am 06:35 Partly Cloudy with Mist and Fog 69 20.8 66 19 90 90 WSW 3 6 29.94 1014 5 8 N/A
6:55 am 06:55 Sunny with Mist and Fog 71 21.5 67 19.7 90 90 SW 3 6 29.94 1014 5 8 N/A
7:15 am 07:15 Partly Cloudy with Mist and Fog 72 22.3 69 20.5 90 90 WSW 3 6 29.94 1014 5 8 N/A
7:35 am 07:35 Partly Cloudy 74 23.6 71 21.6 89 89 N N/A 29.94 1014 7 11 N/A
7:55 am 07:55 Sunny 74 23.6 71 21.5 88 88 SW 5 7 29.94 1014 10 16 N/A
8:15 am 08:15 Sunny 74 23.6 70 21 85 85 SSW 7 11 29.94 1014 10 16 N/A
8:35 am 08:35 Sunny 75 23.7 70 21 85 85 SW 6 9 29.94 1014 10 16 N/A
8:55 am 08:55 Sunny 77 25.1 71 21.8 82 82 SW 6 9 29.94 1014 10 16 N/A
9:15 am 09:15 Sunny 77 25.1 71 21.7 81 81 SW 8 13 29.97 1015 10 16 N/A
9:35 am 09:35 Sunny 79 25.9 71 21.9 79 79 SW 8 13 29.97 1015 10 16 N/A
9:55 am 09:55 Sunny 80 26.5 72 22.2 77 77 SW 6 9 29.97 1015 10 16 N/A
10:15 am 10:15 Sunny 80 26.5 71 21.7 75 75 SW 6 9 29.97 1015 10 16 N/A
10:35 am 10:35 Sunny 81 27.2 72 22.1 74 74 SW 5 7 29.97 1015 10 16 N/A
10:55 am 10:55 Sunny 82 28 74 23.1 75 75 SW 7 11 29.91 1013 7 11 N/A
11:15 am 11:15 Sunny 82 28 73 22.9 74 74 SSW 5 7 29.91 1013 7 11 N/A
11:35 am 11:35 Hazy 83 28.6 74 23.2 73 73 SSW 5 7 29.91 1013 5 8 N/A
11:55 am 11:55 Sunny 85 29.3 74 23.6 71 71 WSW 5 7 29.91 1013 7 11 N/A
12:15 pm 12:15 Partly Cloudy 88 30.9 76 24.7 70 70 W 3 6 29.91 1013 7 11 N/A
12:35 pm 12:35 Partly Cloudy 90 32.1 79 26.2 71 71 SW 6 9 29.91 1013 7 11 N/A
12:55 pm 12:55 Hazy 90 32.1 78 25.8 69 69 SSW 7 11 29.91 1013 5 8 N/A
1:15 pm 13:15 Partly Cloudy 90 32.1 79 26.1 71 71 SW 7 11 29.91 1013 7 11 N/A
1:35 pm 13:35 Partly Cloudy 90 32.1 78 25.6 69 69 SW 7 11 29.91 1013 N/A N/A
1:55 pm 13:55 Partly Cloudy 90 32.1 78 25.5 68 68 SW 7 11 29.91 1013 N/A N/A
2:15 pm 14:15 Partly Cloudy 90 32.1 78 25.4 68 68 SSW 6 9 29.91 1013 N/A N/A
2:35 pm 14:35 Mostly Cloudy 90 32.1 78 25.3 67 67 SW 8 13 29.91 1013 N/A N/A
2:55 pm 14:55 Partly Cloudy 91 32.5 77 24.9 64 64 SW 6 9 29.91 1013 N/A N/A
3:15 pm 15:15 Partly Cloudy 95 35 79 26 60 60 SW 9 15 29.91 1013 N/A N/A
3:35 pm 15:35 Partly Cloudy 90 32.1 76 24.2 63 63 WSW 7 11 29.88 1012 N/A N/A
3:55 pm 15:55 Partly Cloudy 92 33.4 77 24.8 61 61 SW 5 7 29.88 1012 N/A N/A
4:15 pm 16:15 Partly Cloudy 95 35 78 25.7 59 59 WSW 9 15 29.88 1012 N/A N/A
4:35 pm 16:35 Partly Cloudy N/A N/A N/A WSW 9 15 N/A N/A N/A
4:55 pm 16:55 Partly Cloudy N/A N/A N/A WSW 8 13 N/A N/A N/A
5:15 pm 17:15 Mostly Cloudy N/A N/A N/A undefined N/A N/A N/A N/A
5:35 pm 17:35 Partly Cloudy N/A N/A N/A undefined N/A N/A N/A N/A
5:55 pm 17:55 Partly Cloudy 95 35 77 25.1 56 56 WSW 6 9 N/A N/A N/A
6:15 pm 18:15 Sunny N/A N/A N/A WSW 7 11 N/A N/A N/A
6:35 pm 18:35 undefined N/A N/A N/A undefined N/A N/A N/A N/A
6:55 pm 18:55 undefined 90 32.1 72 22.4 57 57 W 9 15 29.85 1011 N/A N/A
7:15 pm 19:15 Sunny 90 32.1 73 22.9 58 58 WSW 3 6 29.85 1011 N/A N/A
7:35 pm 19:35 Sunny 90 32.1 75 24 62 62 WNW 3 6 29.85 1011 N/A N/A
7:55 pm 19:55 Sunny 90 32.1 77 24.8 65 65 NNE 6 9 29.85 1011 N/A N/A
8:15 pm 20:15 Partly Cloudy 82 28 70 21.1 66 66 NNE 6 9 29.85 1011 N/A N/A
8:35 pm 20:35 Partly Cloudy 81 27.1 70 21 69 69 ENE 6 9 29.91 1013 N/A N/A
8:55 pm 20:55 Partly Cloudy 80 26.5 70 21 72 72 N 7 11 29.94 1014 N/A N/A
9:15 pm 21:15 Cloudy with Light Rain 80 26.5 71 21.5 74 74 NNW 9 15 29.94 1014 10 16 N/A
9:35 pm 21:35 Mostly Cloudy with Light Rain 77 25.1 70 21.1 79 79 E 5 7 29.94 1014 N/A N/A
9:55 pm 21:55 Partly Cloudy with Light Rain 77 25.1 71 21.9 82 82 ENE 8 13 29.97 1015 10 16 N/A
10:15 pm 22:15 Partly Cloudy 77 25.1 72 22 83 83 NE 3 6 29.97 1015 10 16 N/A
10:35 pm 22:35 Clear 76 24.6 71 21.7 84 84 NNE 5 7 29.97 1015 10 16 N/A
10:55 pm 22:55 Partly Cloudy with Light Rain 75 24 70 21.1 84 84 NNE 5 7 29.97 1015 10 16 N/A
11:15 pm 23:15 Partly Cloudy 76 24.4 71 21.6 84 84 E 6 9 30.00 1016 10 16 N/A
11:35 pm 23:35 Partly Cloudy 74 23.6 70 21 85 85 N N/A 30.00 1016 10 16 N/A
11:55 pm 23:55 Partly Cloudy 77 25 72 22.1 84 84 S 5 7 29.97 1015 10 16 N/A

Powered by AerisWeather